GW2134 Weather Reports


time (UTC)temp
F
wind
direction
speed
knots
gust
knots
rain 1hr
in
rain 24hr
in
rain mn
in
humidity
%
barometer
mb
20260902133059 87 200 1.7 9.6 0.00 0.00 0.00 45 1022.4
20260902131555 86 0 0.9 9.6 0.00 0.00 0.00 46 1022.5
20260902130059 86 123 3.5 10.4 0.00 0.00 0.00 47 1022.6
20260902124602 86 0 0.0 4.3 0.00 0.00 0.00 45 1022.7
20260902123059 86 163 1.7 7.0 0.00 0.00 0.00 43 1022.8
20260902121607 86 125 3.5 12.2 0.00 0.00 0.00 43 1022.9
20260902120052 87 0 2.6 7.0 0.00 0.00 0.00 42 1023.0
20260902114558 85 106 0.9 4.3 0.00 0.00 0.00 44 1023.3
20260902113105 85 125 1.7 7.0 0.00 0.00 0.00 44 1023.3
20260902111557 84 158 1.7 9.6 0.00 0.00 0.00 45 1023.4
20260902110056 85 139 0.0 7.0 0.00 0.00 0.00 42 1023.5
20260902104601 84 117 4.3 10.4 0.00 0.00 0.00 43 1023.5
20260902103103 83 129 1.7 8.7 0.00 0.00 0.00 45 1023.6
20260902101607 83 168 3.5 9.6 0.00 0.00 0.00 50 1023.8
20260902100105 82 190 3.5 7.8 0.00 0.00 0.00 53 1023.9
20260902094601 82 169 1.7 7.8 0.00 0.00 0.00 54 1024.0
20260902093105 82 170 2.6 6.1 0.00 0.00 0.00 54 1024.1
20260902091603 81 113 1.7 4.3 0.00 0.00 0.00 55 1024.2
20260902090100 81 121 1.7 6.1 0.00 0.00 0.00 56 1024.2
20260902084601 80 108 1.7 4.3 0.00 0.00 0.00 56 1024.2
20260902083058 80 0 0.0 5.2 0.00 0.00 0.00 57 1024.0
20260902081602 79 128 0.9 2.6 0.00 0.00 0.00 57 1023.8
20260902080056 78 113 0.9 2.6 0.00 0.00 0.00 58 1023.8
20260902074600 77 0 0.0 2.6 0.00 0.00 0.00 60 1023.6
20260902073102 76 0 0.9 2.6 0.00 0.00 0.00 62 1023.6
20260902071606 74 0 0.9 3.5 0.00 0.00 0.00 63 1023.3
20260902070058 73 0 0.0 1.7 0.00 0.00 0.00 66 1023.3
20260902064606 71 44 0.0 1.7 0.00 0.00 0.00 68 1023.3
20260902063100 70 0 0.0 0.9 0.00 0.00 0.00 70 1023.3
20260902060109 68 0 0.0 0.9 0.00 0.00 0.00 74 1023.2
20260902054600 67 0 0.0 0.0 0.00 0.00 0.00 75 1023.1
20260902053114 66 0 0.0 0.9 0.00 0.00 0.00 76 1023.0
20260902051600 66 43 0.0 1.7 0.00 0.00 0.00 77 1022.9
20260902050107 65 0 0.0 0.9 0.00 0.00 0.00 73 1022.9
20260902044606 66 0 0.0 0.9 0.00 0.00 0.00 75 1023.0
20260902043106 66 0 0.0 0.9 0.00 0.00 0.00 75 1022.9
20260902041604 66 0 0.0 0.9 0.00 0.00 0.00 75 1022.9
20260902040056 66 0 0.0 2.6 0.00 0.00 0.00 75 1022.8
20260902034557 66 0 0.0 1.7 0.00 0.00 0.00 73 1022.9
20260902033100 66 0 0.0 1.7 0.00 0.00 0.00 72 1022.8
20260902031602 66 0 0.0 0.9 0.00 0.00 0.00 72 1023.0
20260902030055 66 0 0.0 0.0 0.00 0.00 0.00 71 1023.0
20260902024553 66 0 0.0 0.0 0.00 0.00 0.00 72 1023.0
20260902023100 66 0 0.0 0.0 0.00 0.00 0.00 72 1023.1
20260902021601 66 0 0.0 1.7 0.00 0.00 0.00 72 1023.0
20260902020106 66 0 0.0 0.0 0.00 0.00 0.00 73 1023.1
20260902014555 66 0 0.0 0.0 0.00 0.00 0.00 74 1023.1
20260902013059 66 0 0.0 0.0 0.00 0.00 0.00 73 1023.2
20260902011601 67 360 0.0 0.9 0.00 0.00 0.00 73 1023.2
20260902010106 67 360 0.0 0.9 0.00 0.00 0.00 71 1023.3
20260902004602 67 0 0.0 0.9 0.00 0.00 0.00 71 1023.2
20260902003054 67 0 0.0 0.0 0.00 0.00 0.00 71 1023.1
20260902001625 67 0 0.0 1.7 0.00 0.00 0.00 71 1023.1
20260902000103 67 0 0.0 0.0 0.00 0.00 0.00 70 1023.1
20260901234555 67 360 0.0 1.7 0.00 0.00 0.00 70 1023.1
20260901233102 67 0 0.0 0.9 0.00 0.00 0.00 72 1023.1
20260901231602 68 0 0.0 0.9 0.00 0.00 0.00 72 1023.1
20260901230101 68 0 0.0 0.9 0.00 0.00 0.00 73 1023.1
20260901224606 68 360 0.0 0.9 0.00 0.00 0.00 71 1023.1
20260901223103 68 0 0.0 0.9 0.00 0.00 0.00 73 1023.1
20260901221600 69 0 0.0 0.9 0.00 0.00 0.00 73 1023.2
20260901220134 69 360 0.9 2.6 0.00 0.00 0.00 73 1023.1
20260901214604 69 360 1.7 2.6 0.00 0.00 0.00 73 1023.1
20260901213122 69 0 0.0 1.7 0.00 0.00 0.00 73 1022.9
20260901211554 69 0 0.0 2.6 0.00 0.00 0.00 73 1022.9
20260901210117 70 360 1.7 2.6 0.00 0.00 0.00 72 1022.8
20260901204558 70 0 1.7 2.6 0.00 0.00 0.00 72 1022.7
20260901203058 71 0 0.0 2.6 0.00 0.00 0.00 72 1022.8
20260901201554 71 360 2.6 3.5 0.00 0.00 0.00 71 1022.7
20260901200058 71 0 0.9 3.5 0.00 0.00 0.00 70 1022.8
20260901194559 72 360 0.0 1.7 0.00 0.00 0.00 68 1022.9
20260901193106 72 0 0.0 2.6 0.00 0.00 0.00 68 1022.9
20260901191558 73 360 0.9 2.6 0.00 0.00 0.00 68 1023.1
20260901190055 73 0 0.0 1.7 0.00 0.00 0.00 67 1022.6
20260901184609 73 360 1.7 4.3 0.00 0.00 0.00 68 1022.3
20260901183108 74 360 2.6 4.3 0.00 0.00 0.00 67 1022.1
20260901181604 74 355 1.7 5.2 0.00 0.00 0.00 67 1021.9
20260901180100 75 15 0.9 4.3 0.00 0.00 0.00 66 1021.7
20260901174600 75 0 0.0 3.5 0.00 0.00 0.00 65 1021.8
20260901173056 76 360 1.7 3.5 0.00 0.00 0.00 63 1021.7
20260901171558 77 0 0.0 2.6 0.00 0.00 0.00 62 1021.6
20260901170108 78 0 1.7 3.5 0.00 0.00 0.00 60 1021.6
20260901164558 79 0 0.0 6.1 0.00 0.00 0.00 59 1021.6
20260901163059 80 0 0.9 4.3 0.00 0.00 0.00 58 1021.5
20260901161558 80 171 1.7 7.0 0.00 0.00 0.00 57 1021.8
20260901160051 81 185 0.9 4.3 0.00 0.00 0.00 56 1021.9
20260901154617 82 192 2.6 7.0 0.00 0.00 0.00 54 1022.0
20260901153105 83 177 1.7 7.0 0.00 0.00 0.00 54 1021.9
20260901151552 83 189 0.9 8.7 0.00 0.00 0.00 53 1022.0
20260901150117 82 144 2.6 8.7 0.00 0.00 0.00 55 1022.1
20260901144603 82 195 4.3 12.2 0.00 0.00 0.00 55 1022.0
20260901143102 83 188 5.2 13.0 0.00 0.00 0.00 53 1022.1
20260901141602 84 198 3.5 10.4 0.00 0.00 0.00 52 1022.1
20260901140059 86 185 2.6 9.6 0.00 0.00 0.00 46 1022.0
20260901134601 86 96 2.6 7.8 0.00 0.00 0.00 43 1022.2